This is the latest recevied weather packets stored in our database for station/object W3BRL. If no packets are shown the sender has not sent any weather packets the latest 10 day(s).
| Time | Temp. | Humidity | Pressure | Rain* | Wind** | Luminosity | Snow |
|---|---|---|---|---|---|---|---|
| 1777759452 | 5.56° C | 69% | 1012.8 hPa | 0 mm | - | 98 W/m² | - |
| 1777759149 | 5.56° C | 67% | 1012.8 hPa | 0 mm | - | 114 W/m² | - |
| 1777758846 | 6.11° C | 67% | 1012.6 hPa | 0 mm | - | 132 W/m² | - |
| 1777758543 | 6.11° C | 68% | 1012.8 hPa | 0 mm | - | 151 W/m² | - |
| 1777758239 | 6.11° C | 67% | 1012.6 hPa | 0 mm | - | 140 W/m² | - |
| 1777757937 | 6.11° C | 67% | 1012.9 hPa | 0 mm | - | 187 W/m² | - |
| 1777757633 | 6.11° C | 69% | 1012.5 hPa | 0 mm | - | 198 W/m² | - |
| 1777757332 | 6.11° C | 68% | 1012.6 hPa | 0 mm | - | 193 W/m² | - |
| 1777757031 | 6.11° C | 69% | 1012.6 hPa | 0 mm | - | 189 W/m² | - |
| 1777756727 | 6.11° C | 70% | 1012.4 hPa | 0 mm | - | 236 W/m² | - |
| 1777756423 | 6.11° C | 70% | 1012.5 hPa | 0 mm | - | 249 W/m² | - |
| 1777756121 | 6.11° C | 70% | 1012.6 hPa | 0 mm | - | 243 W/m² | - |
| 1777755818 | 5.56° C | 70% | 1012.5 hPa | 0 mm | - | 213 W/m² | - |
| 1777755515 | 5.56° C | 70% | 1012.6 hPa | 0 mm | - | 167 W/m² | - |
| 1777755211 | 5.56° C | 71% | 1012.5 hPa | 0 mm | - | 148 W/m² | - |
| 1777754908 | 6.11° C | 73% | 1012.5 hPa | 0 mm | - | 125 W/m² | - |
| 1777754605 | 6.11° C | 72% | 1012.4 hPa | 0 mm | - | 180 W/m² | - |
| 1777754302 | 5.56° C | 71% | 1012.3 hPa | 0 mm | - | 187 W/m² | - |
| 1777754000 | 5.56° C | 72% | 1012.5 hPa | 0 mm | - | 195 W/m² | - |
| 1777753700 | 5.56° C | 71% | 1012.3 hPa | 0 mm | - | 111 W/m² | - |
| 1777753399 | 5.56° C | 70% | 1012.5 hPa | 0 mm | - | 100 W/m² | - |
| 1777753096 | 6.11° C | 70% | 1012.3 hPa | 0 mm | - | 117 W/m² | - |
| 1777752792 | 6.11° C | 69% | 1012.4 hPa | 0 mm | - | 118 W/m² | - |
| 1777752489 | 6.11° C | 70% | 1012.4 hPa | 0 mm | - | 159 W/m² | - |
| 1777752184 | 6.11° C | 70% | 1012.5 hPa | 0 mm | - | 258 W/m² | - |
* Rain latest hour (hover to see other rain measurements)
** Current wind speed in m/s (hover to see current wind gust speed)